User: anonymous   Login
Location: Unspecified
(0.0000°N, 0.0000°E)
Time: 10:33:08
(UTC+00:00)
Language:

NOSS 7 (A) - Orbit

View from above orbital plane
View from above orbital plane
View from above satellite
View from above satellite

Ground track
Ground track

The orbit data is extracted from the following two-line orbital elements,

1 16591U 86014A   18219.92906884 0.00001100  00000-0  10032-3 0    02
2 16591  63.3001 153.3254 0912110  56.9074 303.0926 13.48988535    02
Epoch (UTC): 07 August 2018 22:17:51
Eccentricity: 0.0912110
inclination: 63.3001°
perigee height: 396 km
apogee height: 1756 km
right ascension of ascending node: 153.3254°
argument of perigee: 56.9074°
revolutions per day: 13.48988535
mean anomaly at epoch: 303.0926°
orbit number at epoch: 0

The dashed part of the orbit path shows where the satellite is in the earth's shadow,  

DLR